Regional Weather Roundup
Issued by NWS Jackson, KY

Home | Current Version | Previous Version | Graphics & Text | Print | Product List | Glossary Off
Versions: 1 2 3 4 5 6 7 8 9 10 11 12 13 14 15 16 17 18 19 20 21 22 23 24 25 26 27 28 29 30 31 32 33 34 35 36 37 38 39 40 41 42 43 44 45 46 47 48 49 50

000
ASUS43 KJKL 040810
RWRJKL

EAST KENTUCKY HOURLY WEATHER ROUNDUP
NATIONAL WEATHER SERVICE JACKSON KY
400 AM EDT TUE AUG 04 2015

NOTE: "FAIR" INDICATES FEW OR NO CLOUDS BELOW 12,000 FEET WITH
NO SIGNIFICANT WEATHER AND/OR OBSTRUCTIONS TO VISIBILITY.

* THESE REPORTS ARE NOT UNDER NWS QUALITY CONTROL AND MAY NOT
  REPORT WEATHER SUCH AS PRECIPITATION AND FOG.

KYZ079-080-083-085-087-088-110-112-115-119-120-040900
...EASTERN KENTUCKY...

CITY           SKY/WX    TMP DP  RH WIND       PRES   REMARKS
JACKSON        PTCLDY    66  64  93 S5        29.98S
LONDON         PTCLDY    69  63  81 S3        29.99S
SOMERSET*      CLEAR     70  70 100 CALM      29.98S
MONTICELLO*    CLEAR     69  69 100 CALM      30.00R
WILLIAMSBURG*  PTCLDY    70  70 100 E3        30.00
MIDDLESBORO*   MOCLDY    67  67  98 NE5       30.02R
HAZARD APT*    MOSUNNY   66  66 100 CALM      29.99R
BLACK MTN*       N/A     68  64  88 SW7         N/A
PIKEVILLE APT* CLOUDY    68  64  88 SE3       29.99R
BIG SANDY*     RAIN      67  66  97 W8        29.99R
MOREHEAD APT*  CLOUDY    66  64  94 S5        29.97R FOG
$$

KYZ035-036-041-042-044-050-067-078-099-040900
...CENTRAL KENTUCKY...

CITY           SKY/WX    TMP DP  RH WIND       PRES   REMARKS
MT STERLING*   MOCLDY    68  64  88 SW5       29.97R
FLEMING/MASON* PTCLDY    64  64 100 CALM      29.95S
DANVILLE*      CLEAR     72  70  94 SW3       29.97R
RICHMOND*      PTCLDY    73  68  83 S3        29.95S
LEXINGTON      CLEAR     69  65  86 S3        29.95S
FRANKFORT      PTCLDY    70  66  87 CALM      29.93S
$$

KYZ091>093-OHZ055-061-077-WVZ005-015-034-035-042-040900
...SOUTHERN OHIO/WEST VIRGINIA...

CITY           SKY/WX    TMP DP  RH WIND       PRES   REMARKS
COVINGTON      PTCLDY    69  66  90 NE5       29.94S
COLUMBUS       MOCLDY    64  61  90 CALM      29.93S
DAYTON         CLEAR     64  61  90 CALM      29.95S
WILMINGTON     CLEAR     63  62  97 CALM      29.95S
HUNTINGTON     CLEAR     64  63  96 CALM      29.94R
CHARLESTON     CLEAR     67  60  78 CALM      29.95R
PINEVILLE*     PTCLDY    63  63 100 MISG      30.06R
BECKLEY        PTCLDY    64  58  80 W5        30.02S
BLUEFIELD      MOCLDY    64  60  87 SW8       30.04F
$$

VAZ002-007-008-TNZ017-027-036-066-071-040900
...SOUTHWEST VIRGINIA/EAST TENNESSEE...

CITY           SKY/WX    TMP DP  RH WIND       PRES   REMARKS
WISE*          MOCLDY    70  61  73 CALM      30.08S
ABINGDON*      MOCLDY    67  61  81 CALM      30.05R
BRISTOL        MOCLDY    64  61  90 CALM      30.02R
KNOXVILLE      CLEAR     70  64  81 CALM      29.98S
OAK RIDGE      CLEAR     72  67  84 CALM      30.00R
CROSSVILLE     CLEAR     68  65  90 W3        30.04S
NASHVILLE      CLEAR     74  69  85 S3        29.96S
$$

...KEY TO REMARKS...
VSB - VISIBILITY IN MILES
WCI - WIND CHILL INDEX
HX  - HEAT INDEX

$$



USA.gov is the U.S. government's official web portal to all federal, state and local government web resources and services.